#timestamp,LO_Frequency,Hit,StdDev 
1637049615.7,286047002.4,N
1637049635.5,286047000.5,N
1637049655.4,286047003.2,N
1637049675.2,286047002.4,N
1637049695.1,286047000.0,N
1637049696.0,286047000.0,N
1637049715.8,286046998.7,N
1637049735.6,286046998.8,N
1637049755.5,286047000.0,N
1637049775.3,286047000.1,N
1637049795.1,286046995.5,N
1637049815.9,286046994.5,N
1637049835.7,286046990.2,N
1637049885.6,286046985.8,E
1637049895.5,286046993.0,N
1637049915.3,286047000.0,P
1637049935.2,286047002.9,N
1637049955.0,286047002.5,N
1637049955.9,286047002.5,N
1637049975.8,286046998.1,N
1637049995.6,286047000.1,N
1637050015.4,286046998.7,N
1637050035.3,286047000.7,N
1637050055.1,286047002.4,N
1637050075.8,286047003.2,N
1637050095.7,286047004.5,N
1637050115.5,286047004.4,N
1637050135.4,286047005.8,N
1637050155.2,286047000.1,N
1637050175.0,286047003.2,N
1637050175.9,286047003.2,N
1637050195.8,286047006.0,N
1637050215.6,286047002.4,N
1637050235.5,286047012.8,Y
1637050255.3,286047011.7,P
1637050275.1,286047012.1,N
1637050295.9,286047014.2,N
1637050315.7,286047018.7,Y
1637050335.5,286047010.2,P
1637050355.4,286047004.8,P
1637050375.2,286047003.9,N
1637050395.1,286047001.2,N
1637050396.0,286047001.2,N
1637050415.8,286046994.3,N
1637050435.6,286046986.9,N
1637050455.5,286046993.8,N
1637050475.3,286046995.1,N
1637050495.1,286046994.9,N
1637050515.9,286046999.6,N
1637050535.7,286047000.8,N
1637050555.6,286047001.2,N
1637050575.4,286047000.8,N
1637050595.2,286046997.7,N
1637050615.1,286046999.4,N
1637050616.0,286046999.4,N
1637050635.8,286047001.9,N
1637050655.6,286047002.0,N
1637050675.5,286047000.9,N
1637050695.3,286046999.3,N
1637050715.2,286046995.3,N
1637050735.9,286046995.6,N
1637050755.7,286046997.2,N
1637050775.6,286046991.9,N
1637050795.4,286046993.0,N
1637050815.2,286046989.4,N
1637050835.1,286046988.4,N
1637050836.0,286046988.4,N
1637050855.8,286046983.0,N
1637050875.7,286046985.2,N
1637050895.5,286046985.5,N
1637050915.3,286046984.9,N
1637050935.2,286046989.7,N
1637050955.0,286046988.6,N
1637050955.9,286046988.6,N
1637050975.8,286046993.5,N
1637050995.6,286046995.4,N
1637051015.4,286046996.8,N
1637051035.3,286046996.5,N
1637051055.1,286047003.1,N
1637051075.8,286047003.2,N
1637051095.7,286047002.5,N
1637051115.6,286046998.8,N
1637051135.4,286046995.5,N
1637051155.2,286046993.3,N
1637051175.1,286046994.1,N
1637051176.0,286046994.1,N
1637051195.8,286046993.8,N
1637051215.6,286046988.5,N
1637051265.5,286047000.3,E
1637051275.4,286047005.8,N
1637051295.3,286047002.9,P
1637051315.1,286047001.4,N
1637051335.9,286047000.6,N
1637051355.7,286046998.5,N
1637051375.5,286046995.0,N
1637051395.4,286046992.7,N
1637051415.2,286046987.9,N
1637051435.0,286046989.9,N
1637051435.9,286046989.9,N
1637051455.8,286046987.0,N
1637051475.6,286046984.9,N
1637051495.5,286046991.4,N
1637051515.3,286046994.3,N
1637051535.1,286046996.2,N
1637051555.9,286046999.1,N
1637051575.7,286046998.5,N
1637051595.5,286047003.7,N
1637051615.4,286047004.2,N
1637051635.2,286047004.2,N
1637051655.1,286047004.8,N
1637051656.0,286047004.8,N
1637051675.8,286047003.7,N
1637051695.6,286047004.1,N
1637051715.5,286046995.3,N
1637051735.3,286046996.4,N
1637051755.1,286046990.6,N
1637051775.9,286046992.5,N
1637051795.7,286046998.7,N
1637051815.6,286047002.3,N
1637051835.4,286046997.7,N
1637051855.2,286046991.5,N
1637051875.1,286046984.3,N
1637051876.0,286046984.3,N
1637051895.8,286046982.0,N
1637051915.6,286046985.6,N
1637051935.5,286046987.7,N
1637051955.3,286046985.9,N
1637051975.2,286046987.4,N
1637051995.9,286046989.7,N
1637052015.7,286046994.6,N
1637052035.6,286046993.6,N
1637052055.4,286046994.3,N
1637052075.2,286046996.3,N
1637052095.1,286046995.3,N
1637052096.0,286046995.3,N
1637052115.8,286046995.1,N
1637052135.7,286046994.9,N
1637052155.5,286046995.4,N
1637052175.3,286046994.4,N
1637052195.2,286047000.4,N
1637052215.0,286047005.3,N
1637052215.9,286047005.3,N
1637052235.7,286047011.5,N
1637052255.6,286047004.6,N
1637052275.4,286047004.9,N
1637052295.3,286047009.7,N
1637052315.1,286047009.6,N
1637052316.0,286047009.6,N
1637052335.8,286047008.5,N
1637052355.7,286047001.3,N
1637052375.5,286047001.0,N
1637052395.3,286046993.8,N
1637052415.2,286046995.9,N
1637052435.0,286046997.6,N
1637052435.9,286046997.6,N
1637052455.8,286046995.5,N
1637052475.6,286047001.8,N
1637052495.4,286047002.6,N
1637052515.3,286046998.7,N
1637052535.1,286047002.6,N
1637052555.9,286047006.7,N
1637052575.7,286047008.1,N
1637052595.5,286047009.2,N
1637052615.4,286047008.2,N
1637052635.2,286047012.5,N
1637052655.0,286047010.9,N
1637052655.9,286047010.9,N
1637052675.8,286047010.7,N
1637052695.6,286047005.8,N
1637052715.5,286047006.3,N
1637052735.3,286047015.0,N
1637052755.1,286047023.4,Y
1637052775.9,286047017.4,P
1637052795.7,286047023.9,P
1637052815.5,286047024.3,P
1637052835.4,286047026.0,Y
1637052855.2,286047011.6,P
1637052875.1,286047011.6,P
1637052876.0,286047011.6,P
1637052895.8,286047008.7,Y
1637052915.7,286046997.5,P
1637052935.5,286046997.0,N
1637052955.3,286046992.4,N
1637052975.2,286046989.6,N
1637052995.0,286046989.7,N
1637052995.9,286046989.7,N
1637053015.8,286046988.2,N
1637053035.6,286046986.9,N
1637053055.4,286046989.1,N
1637053075.3,286046985.3,N
1637053095.1,286046988.3,N
1637053115.8,286046986.8,N
1637053135.7,286046982.1,N
1637053155.5,286046992.7,N
1637053175.4,286046990.3,N
1637053195.2,286046981.9,N
